EN

Hourly Weather Walkden

Today, 25 January, Monday

Time Temperature Precipitation Wind Pressure Humidity
00:00 0°C° 0 mm 1 mps 744 mmHg 72%
01:00 +1°C° 0 mm 1 mps 744 mmHg 76%
02:00 -1°C° 0 mm 2 mps 745 mmHg 80%
03:00 -1°C° 0 mm 2 mps 745 mmHg 84%
04:00 -1°C° 0 mm 2 mps 745 mmHg 86%
05:00 -1°C° 0 mm 2 mps 745 mmHg 88%
06:00 -1°C° 0 mm 3 mps 745 mmHg 92%
07:00 0°C° 0 mm 3 mps 746 mmHg 91%
08:00 0°C° 0 mm 3 mps 746 mmHg 89%
09:00 0°C° 0 mm 3 mps 746 mmHg 88%
10:00 0°C° 0 mm 4 mps 747 mmHg 82%
11:00 +1°C° 0 mm 5 mps 747 mmHg 76%
12:00 +2°C° 0 mm 6 mps 748 mmHg 69%
13:00 +2°C° 0 mm 6 mps 748 mmHg 70%
14:00 +2°C° 0 mm 6 mps 748 mmHg 71%
15:00 +2°C° 0 mm 6 mps 749 mmHg 71%
16:00 +1°C° 0 mm 5 mps 749 mmHg 75%
17:00 +1°C° 0 mm 4 mps 750 mmHg 79%
18:00 0°C° 0 mm 4 mps 750 mmHg 83%
19:00 +1°C° 0 mm 3 mps 751 mmHg 85%
20:00 +1°C° 0 mm 3 mps 751 mmHg 86%
21:00 +1°C° 0 mm 3 mps 751 mmHg 87%
22:00 +1°C° 0 mm 3 mps 752 mmHg 87%
23:00 +1°C° 0 mm 3 mps 752 mmHg 87%

Tomorrow, 26 January, Tuesday

Time Temperature Precipitation Wind Pressure Humidity
00:00 0°C° 0 mm 3 mps 752 mmHg 86%
01:00 +1°C° 0 mm 2 mps 752 mmHg 86%
02:00 +1°C° 0 mm 2 mps 752 mmHg 86%
03:00 +1°C° 0 mm 2 mps 752 mmHg 85%
04:00 +1°C° 0 mm 2 mps 752 mmHg 86%
05:00 +1°C° 0 mm 2 mps 752 mmHg 88%
06:00 +1°C° 0 mm 2 mps 753 mmHg 89%
07:00 +1°C° 0.1 mm 2 mps 753 mmHg 90%
08:00 +1°C° 0.1 mm 3 mps 753 mmHg 91%
09:00 +1°C° 0.1 mm 3 mps 753 mmHg 92%
10:00 +1°C° 0.1 mm 3 mps 753 mmHg 92%
11:00 +2°C° 0.1 mm 3 mps 752 mmHg 92%
12:00 +1°C° 0.1 mm 4 mps 752 mmHg 93%
13:00 +1°C° 0.3 mm 4 mps 752 mmHg 93%
14:00 +1°C° 0.3 mm 4 mps 751 mmHg 94%
15:00 +1°C° 0.3 mm 4 mps 750 mmHg 95%
16:00 +1°C° 0.7 mm 4 mps 750 mmHg 95%
17:00 +2°C° 0.7 mm 3 mps 750 mmHg 96%
18:00 +2°C° 0.7 mm 3 mps 750 mmHg 96%
19:00 +3°C° 0.2 mm 2 mps 749 mmHg 96%
20:00 +3°C° 0.2 mm 2 mps 749 mmHg 97%
21:00 +4°C° 0.2 mm 1 mps 749 mmHg 97%
22:00 +4°C° 0 mm 1 mps 749 mmHg 97%
23:00 +4°C° 0 mm 1 mps 750 mmHg 97%

Day after tomorrow, 27 January, Wednesday

Time Temperature Precipitation Wind Pressure Humidity
00:00 +5°C° 0 mm 1 mps 750 mmHg 97%
01:00 +5°C° 0 mm 1 mps 750 mmHg 97%
02:00 +5°C° 0 mm 1 mps 750 mmHg 98%
03:00 +5°C° 0 mm 1 mps 750 mmHg 98%
04:00 +6°C° 0 mm 1 mps 750 mmHg 98%
05:00 +6°C° 0 mm 1 mps 750 mmHg 98%
06:00 +6°C° 0 mm 1 mps 750 mmHg 98%
07:00 +6°C° 0 mm 1 mps 750 mmHg 98%
08:00 +6°C° 0 mm 1 mps 750 mmHg 98%
09:00 +6°C° 0 mm 1 mps 750 mmHg 98%
10:00 +6°C° 0.1 mm 1 mps 750 mmHg 98%
11:00 +6°C° 0.1 mm 1 mps 751 mmHg 98%
12:00 +5°C° 0.1 mm 2 mps 751 mmHg 98%
13:00 +6°C° 0.1 mm 2 mps 750 mmHg 98%
14:00 +6°C° 0.1 mm 2 mps 750 mmHg 97%
15:00 +6°C° 0.1 mm 2 mps 749 mmHg 97%
16:00 +6°C° 0.1 mm 2 mps 749 mmHg 97%
17:00 +6°C° 0.1 mm 2 mps 748 mmHg 98%
18:00 +6°C° 0.1 mm 2 mps 748 mmHg 98%
19:00 +6°C° 1 mm 2 mps 747 mmHg 98%
20:00 +6°C° 1 mm 2 mps 746 mmHg 98%
21:00 +7°C° 1 mm 2 mps 745 mmHg 98%
22:00 +7°C° 2.6 mm 3 mps 745 mmHg 98%
23:00 +7°C° 2.6 mm 3 mps 744 mmHg 98%

28 January, Thursday

Time Temperature Precipitation Wind Pressure Humidity
00:00 +7°C° 2.6 mm 3 mps 743 mmHg 98%
01:00 +7°C° 0.9 mm 4 mps 742 mmHg 97%
02:00 +7°C° 0.9 mm 4 mps 741 mmHg 97%
03:00 +8°C° 0.9 mm 5 mps 740 mmHg 96%
04:00 +8°C° 0.1 mm 6 mps 740 mmHg 95%
05:00 +8°C° 0.1 mm 6 mps 740 mmHg 93%
06:00 +9°C° 0.1 mm 7 mps 740 mmHg 91%
07:00 +8°C° 0 mm 7 mps 741 mmHg 90%
08:00 +7°C° 0 mm 6 mps 741 mmHg 88%
09:00 +7°C° 0 mm 6 mps 742 mmHg 87%
10:00 +8°C° 0 mm 6 mps 742 mmHg 83%
11:00 +8°C° 0 mm 6 mps 742 mmHg 80%
12:00 +9°C° 0 mm 6 mps 742 mmHg 76%
13:00 +9°C° 0 mm 5 mps 742 mmHg 79%
14:00 +9°C° 0 mm 5 mps 741 mmHg 82%
15:00 +9°C° 0 mm 5 mps 741 mmHg 85%
16:00 +9°C° 0.5 mm 5 mps 740 mmHg 88%
17:00 +8°C° 0.5 mm 5 mps 739 mmHg 90%
18:00 +8°C° 0.5 mm 5 mps 738 mmHg 93%
19:00 +8°C° 3.5 mm 5 mps 737 mmHg 94%
20:00 +8°C° 3.5 mm 6 mps 736 mmHg 94%
21:00 +8°C° 3.5 mm 6 mps 736 mmHg 95%
22:00 +8°C° 1.2 mm 7 mps 736 mmHg 92%
23:00 +6°C° 1.2 mm 9 mps 736 mmHg 88%

29 January, Friday

Time Temperature Precipitation Wind Pressure Humidity
00:00 +5°C° 1.2 mm 10 mps 737 mmHg 85%
01:00 +5°C° 0 mm 9 mps 738 mmHg 83%
02:00 +5°C° 0 mm 9 mps 738 mmHg 81%
03:00 +5°C° 0 mm 8 mps 739 mmHg 79%
04:00 +5°C° 0 mm 7 mps 739 mmHg 79%
05:00 +5°C° 0 mm 7 mps 739 mmHg 80%
06:00 +5°C° 0 mm 6 mps 739 mmHg 81%
07:00 +4°C° 0 mm 6 mps 739 mmHg 82%
08:00 +4°C° 0 mm 6 mps 739 mmHg 84%
09:00 +5°C° 0 mm 5 mps 739 mmHg 85%
10:00 +5°C° 0.1 mm 6 mps 739 mmHg 82%
11:00 +5°C° 0.1 mm 6 mps 739 mmHg 79%
12:00 +6°C° 0.1 mm 7 mps 738 mmHg 76%
13:00 +7°C° 0.1 mm 6 mps 738 mmHg 76%
14:00 +7°C° 0.1 mm 6 mps 738 mmHg 76%
15:00 +7°C° 0.1 mm 5 mps 738 mmHg 76%
16:00 +6°C° 0.2 mm 4 mps 738 mmHg 79%
17:00 +7°C° 0.2 mm 2 mps 739 mmHg 82%
18:00 +7°C° 0.2 mm 1 mps 739 mmHg 85%
19:00 +5°C° 0.7 mm 3 mps 740 mmHg 86%
20:00 +3°C° 0.7 mm 6 mps 741 mmHg 87%
21:00 +1°C° 0.7 mm 8 mps 741 mmHg 89%
22:00 +2°C° 0.1 mm 7 mps 742 mmHg 84%
23:00 +1°C° 0.1 mm 6 mps 744 mmHg 80%

30 January, Saturday

Time Temperature Precipitation Wind Pressure Humidity
00:00 +1°C° 0.1 mm 5 mps 745 mmHg 75%
01:00 0°C° 0 mm 4 mps 746 mmHg 75%
02:00 +1°C° 0 mm 3 mps 747 mmHg 75%
03:00 0°C° 0 mm 3 mps 748 mmHg 75%
04:00 +1°C° 0 mm 2 mps 749 mmHg 76%
05:00 +1°C° 0 mm 2 mps 749 mmHg 77%
06:00 +2°C° 0 mm 1 mps 750 mmHg 78%
07:00 +2°C° 0 mm 1 mps 751 mmHg 79%
08:00 +2°C° 0 mm 1 mps 752 mmHg 80%
09:00 +2°C° 0 mm 1 mps 753 mmHg 81%
10:00 +3°C° 0 mm 1 mps 753 mmHg 76%
11:00 +4°C° 0 mm 1 mps 753 mmHg 72%
12:00 +5°C° 0 mm 1 mps 754 mmHg 67%
13:00 +5°C° 0 mm 1 mps 754 mmHg 67%
14:00 +5°C° 0 mm 1 mps 754 mmHg 66%
15:00 +6°C° 0 mm 1 mps 754 mmHg 66%
16:00 +5°C° 0 mm 1 mps 754 mmHg 70%
17:00 +4°C° 0 mm 1 mps 754 mmHg 74%
18:00 +3°C° 0 mm 1 mps 754 mmHg 78%
19:00 +2°C° 0 mm 2 mps 754 mmHg 79%
20:00 +1°C° 0 mm 2 mps 754 mmHg 80%
21:00 0°C° 0 mm 3 mps 753 mmHg 81%
22:00 0°C° 0 mm 3 mps 753 mmHg 80%
23:00 -1°C° 0 mm 4 mps 752 mmHg 78%
Show more